Vertical_Velocity
-2 -2 -2 -2 -2 -3 -3 -2 -2 -2 -2 -2 -2 -2 -2 -2 -3 -3 -3 -3 -3 -3 -2 -2 -2 -2 -3 -2 -1 -0 -0 -0 -1 -2 -2 -1 -1 -1 -1 -2 -0 0 1 1 0 -0 -1 -1 -3 -4 -4 -3 -1 0 1 4 3 2 0 -0 -0 -0 1 1 2 5 11 19 17
-1 -2 -2 -2 -3 -3 -3 -3 -3 -3 -3 -2 -2 -2 -2 -2 -2 -2 -2 -2 -2 -2 -2 -2 -2 -2 -2 -2 -1 -1 -0 -0 -1 -2 -2 -2 -2 -1 -1 -2 -1 0 1 1 1 0 -0 -1 -4 -5 -5 -4 -2 -2 -1 1 3 2 -0 -2 -2 -2 -1 -0 0 3 7 15 16
-1 -1 -1 -2 -2 -2 -2 -3 -3 -3 -2 -2 -2 -2 -2 -2 -2 -2 -2 -2 -2 -2 -2 -2 -1 -1 -1 -1 -1 -1 -0 0 -0 -1 -2 -3 -2 -2 -1 -1 -1 -0 1 1 1 1 1 -1 -3 -4 -4 -2 -2 -3 -3 -3 1 1 0 -2 -2 -2 -2 -1 0 1 4 9 14
-1 -1 -1 -1 -2 -2 -2 -2 -2 -2 -2 -2 -2 -2 -2 -1 -2 -2 -3 -3 -2 -2 -1 -1 -1 -1 -1 -1 -1 -1 -0 0 0 -1 -2 -3 -3 -2 -1 -1 -1 -1 -0 0 1 2 1 0 -2 -3 -2 -1 -1 -2 -2 -3 -1 0 1 0 -0 -1 -1 -1 -1 1 4 7 12
-2 -2 -2 -2 -2 -2 -2 -2 -2 -2 -2 -2 -2 -2 -2 -2 -2 -2 -2 -2 -2 -1 -1 -1 -1 -2 -2 -1 -1 -1 -1 0 1 -0 -1 -3 -3 -2 -2 -1 -0 -1 -1 -1 0 1 1 0 -1 -2 -1 -1 -0 0 0 -0 -1 -0 0 1 1 1 0 -1 -3 -1 3 6 8
-1 -1 -2 -2 -2 -2 -2 -2 -2 -2 -2 -2 -2 -2 -2 -2 -2 -2 -2 -1 -1 -1 -1 -1 -1 -1 -1 -1 -1 -1 -1 -0 0 -0 -1 -3 -3 -3 -2 -1 -0 -0 -1 -2 -1 1 1 0 -1 -2 -1 -1 -1 -0 1 1 -0 -1 -1 -0 1 1 0 -0 -2 -2 -0 5 6
-1 -1 -1 -1 -1 -1 -1 -2 -2 -2 -2 -2 -2 -2 -2 -2 -2 -2 -2 -2 -2 -2 -1 -1 -0 -0 -1 -1 -1 -1 -0 -0 -0 -1 -1 -3 -3 -3 -2 -1 -0 -0 -1 -2 -2 -1 0 1 -1 -2 -3 -2 -3 -2 -1 0 -0 -1 -2 -2 -0 1 1 -0 -2 -3 -2 1 5
-1 -1 -1 -1 -1 -1 -1 -1 -2 -2 -2 -2 -2 -2 -2 -2 -2 -2 -2 -2 -2 -2 -1 -1 -0 -0 -0 -1 -1 -1 -0 -0 -1 -1 -2 -2 -3 -3 -2 -1 -0 -0 -0 -1 -1 -1 -0 0 0 -0 -2 -3 -3 -3 -2 -1 -1 -1 -2 -3 -2 -0 1 1 -1 -2 -2 -2 3
-1 -1 -1 -1 -1 -1 -1 -2 -2 -2 -2 -2 -2 -2 -2 -2 -2 -2 -2 -2 -2 -1 -1 -1 -1 -1 -0 -1 -1 -0 -0 -1 -1 -2 -2 -2 -3 -3 -3 -1 -0 -0 -1 -1 -1 -1 -1 -1 -0 0 0 -1 -2 -2 -2 -1 -2 -2 -2 -3 -3 -2 -1 1 1 -0 -2 -2 -1
-1 -1 -1 -1 -1 -1 -1 -2 -2 -2 -2 -2 -2 -2 -2 -2 -2 -2 -2 -2 -1 -1 -1 -1 -1 -1 -1 -1 -0 -0 -0 -1 -1 -1 -2 -2 -3 -3 -2 -1 -0 -0 -1 -1 -2 -2 -2 -2 -1 -0 0 -0 -1 -1 -1 -1 -2 -3 -3 -2 -3 -3 -2 -0 -0 -1 -2 -3 -2
-1 -1 -1 -1 -1 -1 -1 -1 -2 -2 -2 -2 -2 -2 -2 -2 -2 -2 -2 -2 -2 -1 -1 -0 -0 -1 -1 -1 -1 -1 -1 -1 -1 -1 -2 -3 -3 -2 -2 -0 1 1 -0 -1 -1 -2 -3 -3 -3 -2 -1 -1 -2 -2 -2 -2 -2 -3 -3 -2 -2 -3 -3 -3 -2 -2 -2 -3 -3
-1 -1 -1 -1 -1 -1 -1 -1 -2 -2 -2 -2 -2 -2 -2 -2 -2 -2 -2 -2 -2 -2 -1 -0 -0 -1 -1 -2 -2 -1 -1 -1 -1 -1 -2 -2 -3 -3 -2 -0 1 1 1 -0 -1 -2 -2 -2 -2 -3 -3 -3 -3 -3 -3 -3 -3 -3 -4 -4 -3 -3 -4 -4 -3 -3 -2 -2 -2
-1 -1 -1 -1 -1 -1 -1 -1 -2 -2 -2 -3 -3 -2 -2 -2 -2 -2 -2 -2 -1 -1 -1 -1 -0 -0 -1 -1 -2 -1 -1 -1 -1 -1 -1 -2 -2 -2 -2 -0 1 1 1 0 0 -0 -1 -2 -2 -2 -3 -4 -4 -3 -2 -2 -2 -3 -4 -5 -4 -4 -4 -4 -4 -3 -3 -3 -2
-1 -1 -1 -1 -1 -1 -2 -2 -2 -2 -3 -3 -3 -2 -2 -2 -2 -2 -2 -2 -1 -1 -1 -1 -1 -0 -0 -1 -1 -1 -1 -1 -1 -1 -1 -2 -2 -2 -2 -1 0 1 1 0 1 0 -0 -1 -1 -1 -2 -4 -4 -4 -2 -1 -1 -1 -2 -3 -4 -4 -4 -4 -4 -4 -4 -4 -4
-1 -2 -2 -2 -2 -2 -2 -2 -2 -2 -3 -3 -2 -2 -2 -2 -1 -1 -2 -2 -2 -1 -1 -1 -1 -1 -1 -1 -1 -2 -2 -1 -1 -1 -2 -2 -2 -2 -2 -1 -0 -0 0 0 0 1 1 0 -0 -0 -1 -2 -4 -4 -3 -1 0 0 0 -0 -2 -3 -3 -4 -4 -4 -4 -4 -4
-1 -1 -2 -2 -2 -2 -2 -2 -2 -2 -3 -3 -2 -2 -2 -2 -2 -1 -1 -2 -2 -2 -1 -1 -1 -1 -1 -1 -1 -2 -2 -2 -1 -1 -1 -2 -2 -2 -2 -1 -1 -0 -0 -0 -0 -0 0 0 1 1 0 -1 -2 -3 -3 -1 0 1 2 1 -1 -2 -3 -3 -3 -3 -3 -3 -3
-1 -1 -2 -2 -2 -2 -2 -2 -2 -2 -3 -3 -2 -2 -2 -2 -2 -2 -1 -1 -2 -2 -2 -1 -1 -1 -2 -2 -1 -1 -1 -2 -1 -1 -1 -1 -2 -2 -2 -2 -1 -1 -0 0 -0 -0 -0 -0 0 1 2 1 -1 -2 -2 -0 1 2 2 1 -1 -2 -3 -3 -2 -2 -2 -2 -2
-1 -2 -2 -2 -2 -2 -2 -2 -2 -2 -2 -2 -2 -2 -2 -2 -2 -2 -2 -1 -2 -2 -2 -2 -1 -1 -1 -2 -1 -1 -1 -1 -1 -1 -1 -1 -1 -2 -2 -2 -2 -1 -0 0 0 0 -0 -0 0 1 2 2 -0 -1 -1 -0 2 3 3 1 -1 -2 -3 -2 -2 -2 -2 -2 -2
-1 -2 -2 -2 -2 -2 -2 -2 -2 -2 -2 -2 -2 -2 -2 -2 -2 -2 -2 -2 -2 -2 -2 -2 -2 -1 -1 -2 -1 -1 -0 -0 -1 -1 -1 -1 -1 -2 -2 -2 -2 -1 -0 0 0 0 0 0 1 1 2 2 0 -1 -1 -1 2 3 3 1 -0 -1 -2 -2 -2 -2 -2 -3 -2
-1 -2 -2 -2 -2 -2 -2 -2 -2 -2 -2 -2 -3 -2 -2 -2 -2 -2 -2 -2 -2 -2 -2 -3 -2 -2 -2 -2 -2 -1 -0 1 0 -0 -1 -1 -1 -2 -2 -2 -2 -2 -1 -0 0 0 0 1 1 1 1 2 2 0 -1 -2 -0 1 2 0 -0 -1 -1 -1 -2 -2 -3 -3 -3
-1 -1 -2 -2 -2 -2 -2 -2 -2 -2 -2 -2 -3 -3 -2 -2 -2 -2 -2 -2 -2 -2 -2 -2 -2 -2 -2 -2 -2 -1 -1 1 1 0 -1 -1 -1 -2 -2 -1 -2 -2 -1 -0 -0 -0 0 1 1 0 -1 -0 3 3 1 -2 -2 -0 0 -0 -0 -0 0 -0 -1 -2 -3 -4 -4
-1 -1 -2 -2 -2 -2 -2 -2 -2 -2 -2 -2 -3 -3 -2 -2 -2 -2 -2 -2 -2 -2 -2 -2 -2 -2 -2 -2 -2 -2 -1 -1 -0 -0 -1 -1 -2 -2 -1 -1 -1 -1 -1 -1 -1 -1 -1 -1 -1 -3 -4 -3 3 6 5 2 -0 -1 -1 -1 -1 0 1 0 -0 -1 -2 -3 -4
-1 -1 -2 -2 -2 -2 -2 -2 -2 -2 -2 -2 -3 -3 -2 -2 -2 -2 -2 -2 -2 -2 -2 -2 -2 -2 -2 -1 -1 -1 -2 -2 -2 -2 -2 -1 -1 -1 -1 -0 -0 -1 -1 -1 -1 -1 -2 -4 -5 -5 -5 -3 1 5 7 6 3 1 -0 -1 -1 -0 0 1 -0 -1 -2 -2 -3
-1 -1 -2 -2 -2 -2 -2 -2 -2 -2 -2 -2 -3 -2 -2 -2 -2 -2 -2 -2 -2 -2 -2 -3 -2 -2 -2 -2 -1 -1 -2 -3 -4 -4 -3 -2 -1 -0 -1 -1 -1 -1 -1 -1 -0 -1 -1 -3 -3 -1 1 2 1 2 3 4 3 2 1 1 -0 -1 -1 -0 -0 -0 -1 -2 -2
-1 -1 -1 -2 -2 -2 -2 -2 -2 -2 -2 -2 -2 -2 -2 -2 -2 -2 -2 -2 -2 -2 -2 -2 -2 -2 -2 -2 -2 -2 -2 -3 -4 -4 -3 -2 -1 -1 -1 -2 -2 -2 -1 -0 -0 -0 0 2 4 8 10 9 4 0 -2 -3 -2 0 2 4 2 0 -2 -4 -2 -1 -0 -1 -1
-1 -1 -1 -2 -2 -2 -2 -2 -2 -2 -2 -2 -2 -2 -2 -2 -2 -2 -2 -2 -2 -2 -2 -1 -1 -1 -2 -2 -2 -2 -3 -3 -3 -2 -2 -2 -2 -2 -2 -2 -2 -2 -1 -0 -1 -0 1 3 4 7 11 12 8 3 -1 -5 -5 -2 1 4 4 2 -2 -5 -5 -4 -3 -1 -1
-2 -2 -2 -2 -2 -2 -2 -2 -2 -2 -2 -2 -2 -2 -2 -2 -2 -2 -2 -2 -2 -2 -2 -2 -2 -2 -2 -2 -2 -3 -3 -3 -2 -1 -1 -1 -1 -2 -2 -2 -2 -2 -1 -1 -0 1 1 2 2 3 5 9 10 6 0 -4 -5 -3 -1 2 2 1 -1 -3 -5 -6 -5 -4 -3
-2 -2 -2 -2 -2 -2 -2 -2 -2 -2 -2 -2 -2 -2 -2 -2 -2 -2 -2 -2 -2 -2 -3 -2 -2 -2 -2 -3 -3 -3 -2 -2 -1 -1 -1 -1 -1 -1 -1 -2 -2 -1 -1 -0 1 2 2 1 1 1 2 4 8 8 4 -2 -4 -4 -3 -2 -2 -1 -1 -2 -3 -4 -5 -6 -6
-2 -2 -2 -2 -2 -2 -2 -2 -2 -2 -2 -2 -2 -2 -2 -2 -2 -2 -2 -2 -2 -2 -2 -2 -2 -2 -2 -2 -2 -2 -2 -1 -1 -1 -1 -1 -1 -1 -1 -1 -1 -1 -1 1 1 2 1 0 0 1 2 3 5 6 6 2 -1 -3 -4 -4 -4 -3 -2 -2 -2 -3 -4 -6 -8
-1 -1 -1 -1 -1 -2 -2 -2 -2 -2 -2 -2 -2 -2 -2 -2 -2 -2 -3 -3 -3 -2 -2 -2 -2 -2 -1 -1 -1 -1 -2 -2 -1 -1 -1 -1 -1 -1 -1 -0 -1 -1 -0 0 1 1 1 1 2 2 3 4 4 5 6 7 3 -0 -3 -4 -4 -3 -2 -2 -2 -3 -4 -6 -8
-1 -1 -1 -1 -1 -2 -2 -2 -2 -2 -2 -2 -2 -2 -2 -2 -2 -2 -2 -3 -3 -3 -2 -2 -3 -2 -2 -2 -1 -2 -2 -2 -2 -1 -0 -0 -1 -1 -1 -0 -0 -0 -1 -1 -0 0 1 2 3 3 3 4 5 5 6 7 5 2 -0 -3 -4 -4 -4 -3 -3 -4 -4 -5 -6
-1 -1 -1 -1 -1 -2 -2 -2 -2 -2 -2 -2 -2 -2 -2 -2 -2 -2 -2 -2 -3 -3 -3 -3 -3 -3 -3 -2 -2 -2 -2 -2 -1 -1 -0 -0 -0 -1 -1 -0 -0 -1 -1 -2 -1 0 2 3 3 3 2 3 4 5 4 3 1 -1 -3 -4 -5 -5 -5 -5 -6 -6 -5 -4 -3
-1 -1 -1 -1 -1 -2 -2 -2 -2 -2 -2 -2 -2 -2 -2 -2 -2 -2 -2 -2 -2 -3 -3 -2 -2 -2 -2 -2 -2 -2 -2 -1 -1 -1 -1 -0 -0 -0 -0 -0 -0 -1 -2 -3 -1 0 2 4 3 2 1 2 3 2 0 -2 -4 -5 -6 -6 -6 -6 -6 -5 -6 -6 -5 -3 -0
-1 -1 -1 -1 -1 -2 -2 -2 -2 -2 -2 -2 -2 -2 -2 -2 -2 -2 -2 -2 -2 -3 -2 -2 -2 -2 -2 -2 -2 -2 -2 -2 -2 -1 -1 -1 -0 -0 -0 -1 -1 -2 -2 -2 -1 1 2 4 3 2 2 2 1 -2 -4 -6 -7 -7 -6 -6 -6 -6 -4 -3 -3 -3 -2 -0 3
-1 -1 -1 -1 -1 -2 -2 -2 -2 -2 -2 -2 -2 -2 -2 -2 -2 -2 -2 -2 -2 -2 -2 -2 -2 -2 -2 -2 -2 -2 -3 -3 -2 -2 -1 -1 -1 -1 -1 -1 -1 -1 -1 -1 -0 1 2 3 3 3 3 3 -1 -4 -6 -7 -7 -7 -7 -6 -6 -5 -3 -0 0 1 1 3 6
-1 -1 -1 -1 -1 -2 -2 -2 -2 -2 -2 -2 -2 -2 -2 -2 -2 -2 -2 -2 -2 -2 -2 -2 -1 -1 -2 -2 -2 -2 -2 -3 -3 -3 -2 -1 -1 -2 -2 -2 -2 -2 -1 -1 -0 1 1 2 3 4 4 3 -1 -4 -5 -6 -7 -7 -7 -6 -6 -4 -1 2 2 1 2 5 10
-1 -1 -1 -1 -1 -2 -2 -2 -2 -2 -2 -2 -2 -2 -2 -2 -2 -2 -2 -2 -3 -3 -2 -2 -1 -1 -2 -2 -2 -2 -2 -2 -3 -3 -3 -2 -2 -2 -3 -4 -3 -2 -2 -1 -1 -0 -0 1 2 3 4 4 0 -1 -3 -4 -6 -7 -8 -7 -6 -2 2 4 2 -0 -0 4 12
-0 -0 -1 -1 -1 -2 -2 -2 -2 -2 -2 -2 -2 -2 -2 -2 -2 -2 -2 -2 -3 -3 -3 -2 -2 -2 -2 -2 -3 -3 -2 -1 -2 -2 -3 -3 -2 -2 -3 -4 -4 -3 -2 -1 -1 -1 -1 -1 -0 1 4 5 2 0 -2 -4 -6 -7 -6 -5 -2 2 6 7 2 -2 -3 1 13
-0 -0 -1 -1 -2 -2 -2 -2 -2 -2 -2 -2 -2 -2 -2 -2 -2 -2 -2 -2 -2 -2 -3 -2 -2 -2 -2 -2 -3 -3 -3 -1 -1 -1 -2 -3 -2 -2 -2 -4 -5 -4 -2 -1 -2 -2 -2 -3 -3 -0 3 6 4 1 -2 -3 -4 -3 -1 4 8 10 10 6 0 -3 -4 2 10
-0 -0 -1 -1 -2 -2 -2 -2 -2 -2 -2 -2 -2 -2 -2 -2 -2 -2 -2 -2 -2 -2 -2 -3 -2 -2 -2 -2 -3 -3 -3 -2 -1 -0 -0 -1 -2 -2 -2 -2 -4 -4 -3 -2 -2 -3 -4 -4 -3 0 4 6 5 3 2 2 4 6 11 17 20 17 10 2 -1 -1 1 4 4
-0 -0 -1 -1 -1 -2 -2 -2 -2 -2 -2 -2 -2 -2 -2 -2 -2 -2 -2 -2 -1 -1 -2 -2 -2 -2 -1 -1 -2 -3 -3 -3 -1 -0 0 -0 -1 -1 -0 -1 -2 -3 -3 -3 -3 -4 -4 -3 -1 1 4 7 7 8 9 14 18 21 23 26 22 15 6 -0 1 4 6 4 -0
Height
1538 1537 1536 1535 1535 1534 1533 1532 1531 1530 1529 1528 1527 1526 1525 1524 1523 1522 1521 1521 1520 1519 1518 1517 1517 1516 1515 1514 1514 1512 1511 1510 1510 1509 1508 1506 1505 1504 1503 1502 1500 1499 1497 1496 1494 1492 1490 1489 1487 1485 1483 1481 1480 1478 1477 1475 1473 1471 1469 1467 1465 1462 1460 1457 1455 1452 1450 1448 1447
1537 1536 1535 1534 1533 1532 1531 1531 1530 1529 1528 1527 1526 1525 1524 1523 1522 1521 1520 1520 1519 1518 1517 1516 1516 1515 1514 1513 1513 1512 1510 1510 1508 1507 1506 1505 1504 1503 1502 1500 1499 1498 1496 1495 1493 1491 1490 1488 1486 1485 1483 1481 1480 1478 1476 1475 1473 1471 1469 1467 1465 1463 1460 1458 1455 1453 1450 1448 1447
1535 1535 1534 1533 1532 1531 1530 1530 1529 1528 1527 1526 1525 1524 1523 1522 1521 1520 1520 1519 1518 1517 1516 1516 1515 1514 1513 1512 1511 1511 1510 1509 1507 1506 1505 1504 1503 1502 1501 1500 1498 1497 1496 1494 1493 1491 1489 1488 1486 1484 1482 1481 1479 1477 1475 1474 1472 1470 1468 1466 1465 1463 1460 1458 1456 1453 1451 1449 1447
1534 1534 1533 1532 1531 1530 1529 1528 1527 1527 1526 1525 1524 1523 1522 1521 1520 1520 1519 1518 1517 1516 1515 1515 1514 1513 1512 1511 1510 1510 1509 1508 1506 1505 1504 1503 1502 1501 1500 1499 1497 1496 1495 1493 1492 1490 1489 1487 1485 1483 1482 1480 1479 1477 1475 1473 1471 1470 1468 1466 1465 1463 1461 1459 1456 1454 1451 1450 1448
1533 1532 1532 1531 1530 1529 1528 1527 1526 1525 1525 1524 1523 1522 1521 1520 1520 1518 1517 1517 1516 1515 1515 1514 1513 1512 1511 1510 1510 1508 1507 1506 1505 1504 1503 1502 1501 1500 1499 1498 1496 1495 1494 1492 1491 1490 1488 1486 1485 1483 1481 1480 1478 1476 1475 1473 1471 1469 1467 1466 1464 1463 1461 1459 1457 1455 1452 1450 1449
1532 1531 1530 1530 1529 1528 1527 1526 1525 1525 1524 1523 1522 1521 1520 1519 1518 1517 1516 1515 1515 1514 1514 1513 1512 1511 1510 1509 1508 1507 1506 1505 1504 1503 1502 1501 1500 1499 1498 1497 1495 1494 1493 1492 1490 1489 1487 1486 1484 1482 1480 1479 1477 1475 1474 1472 1470 1469 1467 1465 1464 1462 1460 1459 1457 1455 1452 1450 1449
1531 1530 1529 1529 1528 1527 1526 1525 1525 1524 1523 1522 1521 1520 1519 1518 1517 1516 1515 1515 1514 1513 1512 1511 1511 1510 1509 1508 1507 1506 1505 1504 1503 1502 1501 1500 1499 1498 1497 1495 1495 1493 1492 1491 1490 1488 1487 1485 1484 1482 1480 1478 1476 1475 1473 1472 1470 1468 1466 1465 1463 1461 1460 1458 1457 1455 1453 1450 1449
1530 1529 1528 1528 1527 1526 1525 1524 1523 1522 1522 1521 1520 1519 1518 1517 1516 1515 1514 1514 1513 1512 1511 1510 1510 1509 1508 1507 1506 1505 1504 1503 1502 1500 1500 1499 1498 1497 1495 1495 1494 1492 1491 1490 1489 1488 1486 1485 1483 1481 1480 1478 1476 1474 1473 1471 1470 1468 1466 1464 1463 1461 1460 1458 1456 1455 1453 1450 1449
1528 1528 1527 1526 1525 1525 1524 1523 1522 1521 1520 1520 1519 1518 1517 1516 1515 1514 1513 1512 1512 1511 1510 1510 1509 1508 1507 1506 1505 1504 1503 1501 1500 1499 1498 1497 1496 1495 1495 1494 1492 1491 1490 1489 1488 1487 1486 1485 1483 1481 1480 1478 1476 1474 1472 1471 1469 1468 1466 1464 1462 1461 1459 1458 1456 1454 1452 1450 1449
1527 1527 1526 1525 1525 1524 1523 1522 1521 1520 1520 1519 1518 1517 1516 1515 1514 1513 1512 1511 1511 1510 1509 1508 1507 1506 1505 1505 1504 1503 1501 1500 1499 1498 1497 1496 1495 1495 1494 1493 1491 1490 1489 1488 1487 1486 1485 1484 1482 1481 1479 1478 1476 1474 1472 1470 1469 1467 1465 1464 1462 1460 1459 1457 1455 1454 1452 1450 1448
1526 1525 1525 1524 1523 1522 1521 1521 1520 1519 1518 1517 1517 1516 1515 1514 1513 1512 1511 1510 1510 1509 1508 1507 1506 1505 1505 1503 1502 1501 1500 1499 1498 1497 1496 1495 1494 1493 1493 1492 1490 1489 1488 1487 1486 1485 1484 1483 1482 1480 1479 1477 1475 1474 1472 1470 1469 1467 1465 1464 1462 1460 1458 1457 1455 1453 1451 1450 1448
1525 1524 1524 1523 1522 1521 1520 1520 1519 1518 1517 1516 1515 1515 1514 1513 1512 1511 1510 1510 1509 1508 1507 1506 1505 1504 1503 1502 1501 1500 1499 1498 1497 1496 1495 1494 1493 1492 1491 1490 1490 1488 1487 1486 1485 1484 1483 1482 1481 1480 1478 1476 1475 1473 1471 1470 1468 1466 1465 1463 1461 1460 1458 1456 1454 1453 1451 1449 1447
1523 1523 1522 1521 1521 1520 1519 1518 1518 1517 1516 1515 1514 1513 1513 1512 1511 1510 1509 1508 1507 1507 1506 1505 1504 1503 1502 1501 1500 1499 1498 1497 1495 1495 1494 1493 1492 1491 1490 1489 1488 1487 1486 1485 1484 1483 1482 1481 1480 1479 1477 1475 1474 1472 1471 1469 1468 1466 1464 1463 1461 1459 1457 1455 1454 1452 1450 1449 1447
1522 1521 1521 1520 1520 1519 1518 1517 1516 1515 1515 1514 1513 1512 1511 1511 1510 1509 1508 1507 1506 1506 1505 1504 1503 1502 1501 1500 1499 1498 1497 1495 1495 1493 1492 1491 1491 1490 1489 1488 1487 1486 1485 1484 1483 1482 1481 1480 1479 1478 1476 1475 1473 1471 1470 1469 1467 1466 1464 1462 1460 1458 1457 1455 1453 1452 1450 1448 1446
1521 1520 1520 1519 1518 1517 1516 1516 1515 1514 1513 1513 1512 1511 1510 1510 1509 1508 1507 1506 1505 1505 1504 1503 1502 1501 1500 1499 1498 1497 1495 1495 1493 1492 1491 1490 1490 1489 1488 1487 1486 1485 1484 1483 1482 1481 1480 1479 1478 1477 1475 1474 1472 1471 1470 1468 1467 1465 1464 1462 1460 1458 1456 1455 1453 1451 1450 1448 1446
1519 1519 1518 1518 1517 1516 1515 1515 1514 1513 1512 1511 1511 1510 1509 1509 1508 1507 1506 1505 1505 1504 1503 1502 1501 1500 1499 1498 1497 1496 1495 1493 1492 1491 1490 1489 1488 1488 1487 1486 1485 1484 1483 1482 1481 1480 1479 1478 1477 1476 1475 1473 1472 1470 1469 1468 1466 1465 1463 1461 1460 1458 1456 1455 1453 1451 1450 1448 1446
1518 1518 1517 1516 1515 1515 1514 1513 1513 1512 1511 1510 1510 1509 1508 1507 1507 1506 1505 1504 1503 1502 1501 1501 1500 1499 1498 1497 1496 1495 1494 1492 1491 1490 1489 1488 1487 1486 1485 1485 1484 1483 1482 1481 1480 1479 1478 1477 1476 1475 1474 1472 1471 1470 1468 1467 1466 1465 1463 1461 1459 1458 1456 1454 1453 1451 1450 1448 1446
1517 1516 1516 1515 1515 1514 1513 1512 1511 1511 1510 1509 1509 1508 1507 1506 1505 1505 1504 1503 1502 1501 1500 1500 1499 1498 1497 1496 1495 1494 1493 1491 1490 1489 1488 1487 1486 1485 1485 1484 1482 1481 1480 1480 1479 1477 1476 1475 1475 1474 1473 1472 1470 1469 1468 1466 1465 1464 1462 1460 1459 1457 1455 1454 1453 1451 1450 1448 1446
1515 1515 1514 1514 1513 1512 1512 1511 1510 1510 1509 1508 1507 1507 1506 1505 1505 1504 1503 1502 1501 1500 1499 1498 1498 1497 1496 1495 1494 1493 1492 1491 1490 1488 1487 1486 1485 1485 1483 1482 1481 1480 1480 1479 1477 1476 1475 1475 1474 1473 1472 1471 1470 1468 1467 1465 1464 1463 1461 1460 1458 1456 1455 1454 1452 1451 1450 1448 1446
1514 1514 1513 1513 1512 1511 1510 1510 1509 1508 1508 1507 1506 1506 1505 1504 1503 1503 1502 1501 1500 1499 1498 1497 1496 1496 1495 1494 1493 1492 1491 1490 1489 1487 1486 1485 1484 1483 1482 1481 1480 1479 1478 1477 1476 1475 1474 1473 1473 1472 1471 1470 1468 1467 1465 1464 1463 1462 1460 1459 1457 1456 1455 1453 1452 1450 1449 1448 1446
1513 1512 1512 1511 1511 1510 1509 1509 1508 1507 1507 1506 1505 1505 1504 1503 1502 1501 1501 1500 1499 1498 1497 1496 1495 1495 1494 1493 1492 1491 1490 1489 1488 1486 1485 1484 1483 1482 1481 1480 1479 1478 1477 1476 1475 1474 1473 1472 1471 1470 1470 1469 1467 1466 1464 1463 1462 1460 1460 1458 1456 1455 1454 1452 1451 1450 1448 1447 1445
1511 1511 1510 1510 1510 1509 1508 1507 1507 1506 1505 1505 1504 1503 1503 1502 1501 1500 1500 1499 1498 1497 1496 1495 1495 1494 1493 1491 1491 1490 1489 1488 1487 1486 1485 1483 1482 1481 1480 1479 1478 1477 1476 1475 1474 1473 1472 1471 1470 1469 1468 1467 1466 1465 1463 1462 1460 1459 1458 1457 1455 1454 1453 1452 1450 1449 1448 1446 1445
1510 1510 1509 1509 1508 1508 1507 1506 1506 1505 1505 1504 1503 1502 1502 1501 1500 1500 1499 1498 1497 1496 1495 1495 1494 1493 1492 1491 1490 1489 1488 1487 1485 1485 1483 1482 1481 1480 1479 1478 1477 1476 1475 1474 1473 1472 1470 1470 1469 1468 1467 1466 1465 1464 1463 1461 1460 1458 1457 1455 1454 1453 1452 1450 1450 1448 1447 1446 1444
1509 1508 1508 1507 1507 1506 1506 1505 1505 1504 1503 1503 1502 1501 1500 1500 1499 1499 1498 1497 1496 1495 1495 1494 1493 1492 1491 1490 1489 1488 1487 1485 1484 1483 1482 1481 1480 1479 1478 1477 1476 1475 1474 1473 1472 1470 1470 1469 1468 1467 1466 1465 1464 1463 1462 1461 1459 1458 1456 1454 1453 1451 1450 1449 1448 1447 1446 1445 1444
1507 1507 1507 1506 1506 1505 1505 1504 1503 1503 1502 1501 1501 1500 1500 1499 1498 1497 1497 1496 1495 1494 1493 1493 1491 1490 1490 1489 1488 1487 1485 1484 1483 1482 1480 1480 1479 1478 1477 1476 1475 1474 1473 1472 1471 1470 1470 1469 1468 1467 1466 1465 1463 1462 1461 1460 1458 1457 1455 1453 1451 1450 1449 1448 1447 1446 1445 1444 1443
1506 1505 1505 1505 1505 1504 1503 1503 1502 1502 1501 1500 1500 1499 1498 1498 1497 1496 1495 1495 1494 1493 1492 1491 1490 1490 1489 1487 1486 1485 1484 1483 1482 1481 1480 1479 1478 1477 1476 1475 1474 1472 1471 1470 1470 1469 1469 1469 1468 1467 1466 1464 1462 1460 1459 1458 1457 1455 1454 1452 1450 1449 1447 1446 1445 1444 1443 1442 1441
1505 1504 1504 1504 1503 1503 1502 1502 1501 1500 1500 1499 1499 1498 1497 1497 1496 1495 1495 1494 1493 1492 1491 1490 1490 1489 1487 1486 1485 1484 1483 1482 1481 1480 1479 1478 1476 1475 1474 1473 1472 1471 1470 1469 1469 1468 1468 1468 1467 1466 1465 1464 1462 1460 1458 1456 1455 1454 1452 1451 1449 1448 1446 1445 1444 1442 1441 1440 1440
1503 1503 1503 1502 1502 1501 1501 1500 1500 1499 1499 1498 1498 1497 1496 1496 1495 1494 1494 1493 1492 1491 1490 1490 1489 1488 1486 1485 1484 1483 1482 1481 1480 1479 1478 1476 1475 1474 1473 1472 1471 1470 1469 1468 1468 1467 1467 1466 1465 1465 1464 1463 1461 1459 1457 1455 1454 1452 1451 1449 1448 1446 1445 1444 1442 1441 1440 1439 1438
1502 1501 1501 1501 1500 1500 1500 1499 1499 1498 1498 1497 1496 1496 1495 1495 1494 1493 1492 1492 1491 1490 1489 1488 1487 1486 1485 1484 1483 1482 1481 1480 1479 1478 1477 1475 1474 1473 1472 1471 1470 1469 1468 1467 1466 1466 1465 1465 1464 1463 1462 1461 1460 1459 1457 1455 1452 1451 1449 1448 1446 1445 1444 1442 1441 1440 1438 1437 1435
1500 1500 1500 1500 1499 1499 1498 1498 1497 1497 1496 1496 1495 1495 1494 1494 1493 1492 1491 1491 1490 1489 1488 1487 1486 1485 1484 1483 1482 1481 1480 1479 1478 1477 1476 1475 1473 1472 1471 1470 1469 1468 1467 1466 1465 1465 1464 1463 1463 1462 1461 1460 1459 1457 1456 1454 1452 1450 1448 1446 1445 1443 1442 1441 1439 1438 1436 1435 1433
1499 1499 1499 1498 1498 1498 1497 1497 1496 1496 1495 1495 1494 1494 1493 1492 1492 1491 1490 1490 1489 1488 1487 1486 1485 1485 1484 1483 1482 1480 1480 1478 1477 1476 1475 1474 1472 1471 1470 1469 1468 1467 1466 1465 1464 1463 1463 1462 1461 1461 1460 1459 1457 1456 1454 1453 1451 1449 1447 1445 1444 1442 1440 1439 1437 1436 1434 1432 1430
1497 1497 1497 1497 1497 1496 1496 1495 1495 1495 1494 1494 1493 1492 1492 1491 1490 1490 1489 1489 1488 1487 1486 1485 1485 1484 1483 1482 1481 1480 1479 1477 1476 1475 1474 1473 1471 1470 1469 1468 1467 1466 1465 1464 1463 1462 1462 1461 1460 1459 1458 1457 1456 1454 1453 1451 1450 1448 1446 1444 1442 1440 1439 1437 1435 1433 1432 1430 1428
1496 1496 1496 1495 1495 1495 1495 1494 1494 1493 1493 1492 1492 1491 1491 1490 1490 1489 1488 1488 1487 1486 1485 1485 1484 1483 1482 1481 1480 1479 1478 1477 1475 1475 1473 1472 1471 1470 1468 1467 1466 1465 1464 1463 1462 1461 1460 1460 1459 1458 1457 1456 1455 1453 1451 1449 1448 1446 1444 1442 1440 1439 1437 1435 1433 1431 1429 1427 1425
1495 1495 1494 1494 1494 1494 1493 1493 1492 1492 1491 1491 1491 1490 1490 1489 1488 1488 1487 1487 1486 1485 1484 1484 1483 1482 1481 1480 1479 1478 1477 1476 1475 1474 1473 1471 1470 1469 1468 1466 1465 1464 1463 1462 1461 1460 1460 1459 1458 1457 1456 1455 1453 1451 1449 1447 1446 1444 1442 1440 1438 1436 1434 1432 1430 1429 1426 1425 1423
1493 1493 1493 1493 1492 1492 1492 1491 1491 1491 1490 1490 1490 1489 1488 1488 1487 1487 1486 1485 1485 1484 1483 1483 1482 1481 1480 1480 1479 1478 1476 1475 1474 1473 1472 1470 1469 1468 1467 1465 1464 1463 1462 1461 1460 1459 1459 1458 1457 1456 1455 1453 1451 1450 1448 1446 1444 1442 1440 1438 1435 1434 1432 1430 1428 1426 1424 1422 1420
1492 1492 1491 1491 1491 1491 1490 1490 1490 1489 1489 1489 1488 1488 1487 1487 1486 1486 1485 1485 1484 1483 1482 1482 1481 1480 1480 1479 1478 1477 1476 1475 1473 1472 1471 1470 1469 1467 1466 1465 1464 1463 1462 1461 1460 1459 1458 1457 1456 1455 1453 1452 1450 1448 1446 1444 1442 1440 1438 1435 1433 1431 1430 1428 1427 1425 1423 1420 1418
1490 1490 1490 1490 1490 1489 1489 1489 1488 1488 1488 1487 1487 1486 1486 1485 1485 1485 1484 1483 1483 1482 1481 1481 1480 1480 1479 1478 1477 1476 1475 1474 1472 1471 1470 1469 1468 1466 1465 1464 1463 1462 1461 1460 1459 1458 1457 1456 1455 1454 1452 1450 1448 1446 1445 1442 1440 1438 1435 1433 1431 1429 1428 1427 1426 1424 1421 1419 1416
1489 1489 1489 1489 1488 1488 1488 1487 1487 1487 1486 1486 1486 1485 1485 1485 1484 1483 1483 1482 1481 1481 1480 1480 1479 1478 1478 1477 1476 1475 1474 1473 1471 1470 1469 1468 1467 1465 1464 1463 1462 1461 1460 1460 1459 1457 1456 1455 1454 1453 1451 1449 1447 1445 1443 1440 1438 1435 1433 1431 1429 1427 1427 1426 1425 1423 1420 1418 1415
1488 1488 1487 1487 1487 1487 1486 1486 1486 1485 1485 1485 1485 1484 1484 1483 1483 1482 1482 1481 1480 1480 1479 1478 1478 1477 1476 1475 1475 1474 1473 1472 1471 1470 1468 1467 1466 1465 1464 1462 1461 1460 1460 1459 1458 1457 1455 1454 1452 1451 1450 1448 1446 1444 1441 1439 1435 1433 1430 1429 1427 1427 1426 1426 1424 1422 1420 1418 1416
1486 1486 1486 1486 1485 1485 1485 1485 1485 1484 1484 1484 1483 1483 1483 1482 1482 1481 1480 1480 1479 1479 1478 1477 1476 1476 1475 1474 1473 1472 1471 1470 1470 1469 1468 1466 1465 1464 1463 1462 1460 1460 1459 1458 1457 1455 1454 1453 1451 1450 1449 1447 1445 1442 1440 1437 1434 1431 1430 1429 1428 1427 1426 1425 1423 1421 1420 1418 1416
1485 1485 1485 1485 1484 1484 1484 1484 1483 1483 1483 1482 1482 1482 1481 1481 1480 1480 1479 1479 1478 1477 1477 1476 1475 1475 1474 1473 1472 1471 1470 1469 1469 1468 1466 1465 1464 1463 1462 1461 1460 1459 1458 1457 1456 1455 1453 1452 1451 1449 1448 1445 1443 1441 1439 1436 1434 1432 1430 1430 1429 1428 1426 1424 1422 1421 1419 1417 1415